Location: Medlow Airstrip Trail, Medlow Bath NSW 2780, Australia
(33.6682°S, 150.3233°E)
Time: 08:07:23
(UTC+11:00)

Vanguard 2 - Visible Passes

Search period start: 20 October 2019 00:00
Search period end: 30 October 2019 00:00
Orbit: 554 x 2937 km, 32.9° (Epoch: 18 October)

Date Brightness Start Highest point End Pass type
(mag) Time Alt. Az. Time Alt. Az. Time Alt. Az.
20 Oct 10.6 04:22:33 14° NNW 04:32:54 31° NNE 04:41:38 10° E visible
21 Oct 11.3 02:38:02 16° NNE 02:39:53 16° NE 02:47:11 10° ENE visible
21 Oct 10.3 04:39:27 15° NNW 04:51:02 40° NNE 05:00:09 10° E visible
22 Oct 11.0 02:54:52 22° NNE 02:58:01 23° NE 03:07:21 10° E visible
22 Oct 10.1 04:56:16 14° NW 05:09:09 49° NNE 05:18:26 10° E visible
23 Oct 10.8 03:11:37 27° N 03:16:07 31° NNE 03:26:32 10° E visible
23 Oct 9.8 05:13:00 12° NW 05:27:16 59° NNE 05:36:34 10° E visible
24 Oct 11.5 01:26:53 13° NE 01:26:53 13° NE 01:30:03 10° ENE visible
24 Oct 10.5 03:28:16 31° N 03:34:11 39° NNE 03:45:13 10° E visible
24 Oct 9.7 05:30:16 10° WNW 05:45:23 69° NNE 05:54:37 10° E visible
25 Oct 11.2 01:43:28 20° NE 01:43:28 20° NE 01:50:59 10° E visible
25 Oct 10.3 03:44:51 32° NNW 03:52:16 48° NNE 04:03:37 10° E visible
26 Oct 10.9 01:59:58 28° NE 01:59:58 28° NE 02:10:34 10° E visible
26 Oct 10.1 04:01:20 30° NW 04:10:22 57° NNE 04:21:50 10° E visible
27 Oct 10.7 02:16:23 37° NNE 02:16:47 37° NNE 02:29:30 10° E visible
27 Oct 10.0 04:17:45 27° NW 04:28:31 67° NNE 04:39:57 10° E visible
28 Oct 11.6 00:31:22 13° ENE 00:31:22 13° ENE 00:33:15 10° ENE visible
28 Oct 10.4 02:32:44 44° NNE 02:34:46 45° NNE 02:48:04 10° E visible
28 Oct 9.9 04:34:05 22° WNW 04:46:41 75° NNE 04:58:00 10° E visible
29 Oct 11.3 00:47:38 20° ENE 00:47:38 20° ENE 00:53:29 10° E visible
29 Oct 10.3 02:48:59 48° N 02:52:48 55° NNE 03:06:24 10° E visible
29 Oct 9.9 04:50:21 16° WNW 05:04:54 81° NNE 05:16:03 10° E visible
